Regional Weather Roundup
Issued by NWS

Home | Current Version | Previous Version | Text Only | Print | Product List | Glossary On
Versions: 1 2 3 4 5 6 7 8 9 10 11 12 13 14 15 16 17 18 19 20 21 22 23 24 25 26 27 28 29 30 31 32 33 34 35 36 37 38 39 40 41 42 43 44 45 46 47 48 49 50
987
ASUS44 KLIX 170310
RWRLA
LOUISIANA WEATHER ROUNDUP
NATIONAL WEATHER SERVICE NEW ORLEANS LA
1000 PM CDT TUE SEP 16 2014

NOTE: "FAIR" INDICATES FEW OR NO CLOUDS BELOW 12,000 FEET WITH NO
      SIGNIFICANT WEATHER AND/OR OBSTRUCTIONS TO VISIBILITY.
      SKY/WX - SKY CONDITION AND SIGNIFICANT WEATHER.
      TMP - AIR TEMPERATURE.    DP   - DEWPOINT TEMPERATURE.
      RH  - RELATIVE HUMIDITY.  PRES - PRESSURE.
      HX  - HEAT INDEX.         WCI  - WIND CHILL INDEX.

*  THESE STATIONS ARE NOT NWS OR FAA STATIONS AND ARE NOT UNDER
   NWS QUALITY CONTROL.

LAZ040-048-061>063-065-066-069-170400-
SOUTHEAST LOUISIANA

CITY           SKY/WX    TMP DP  RH WIND       PRES   REMARKS
N.O. AUDUBON   NOT AVBL
N.O. INTL ARPT CLOUDY    77  74  90 NW5       30.03R
N.O. LAKEFRONT CLOUDY    80  74  81 NW12      30.03R
N.O. DOWNTOWN* FAIR      79  72  78 NW3       30.03R
SLIDELL        CLOUDY    74  72  93 NE5       30.03R
BATON ROUGE    CLOUDY    73  72  96 NW6       30.03R
BOOTHVILLE     CLOUDY    79  76  90 NW6       30.03R
BELLE CHASSE   CLOUDY    77  73  87 W3        30.02R
BOGALUSA*      CLOUDY    76  72  87 CALM      30.07R
GALLIANO*      NOT AVBL
NEW ROADS*     LGT RAIN  74  73  98 CALM      30.04S
GONZALES*      FAIR      72  72 100 N5        30.02R
HAMMOND*       LGT RAIN  75  72  88 CALM      30.05S
HOUMA*         LGT RAIN  76  73  89 CALM      30.02R
PORT FOURCHON* NOT AVBL

$$

LAZ041-044-053-054-170400-
SOUTHWEST LOUISIANA

CITY           SKY/WX    TMP DP  RH WIND       PRES   REMARKS
LAKE CHARLES   CLOUDY    76  74  93 CALM      30.03R
LAFAYETTE      CLOUDY    74  74 100 N6        30.02S
PATTERSON      CLOUDY    73  72  94 NE7       30.04S
SALT POINT       N/A     76  72  87 CALM      30.01R
NEW IBERIA     LGT RAIN  74  72  93 CALM      30.01F
CHENAULT AIRPK CLOUDY    76  74  93 CALM      30.04S

$$

LAZ027-028-170400-
CENTRAL LOUISIANA

CITY           SKY/WX    TMP DP  RH WIND       PRES   REMARKS
FORT POLK      RAIN      73  72  96 E3        30.05R
ALEXANDRIA INT MOCLDY    74  73  97 S7        30.03S
ALEXANDRIA     CLOUDY    75  71  87 W5        30.05S

$$

LAZ001-002-170400-
NORTHWEST LOUISIANA

CITY           SKY/WX    TMP DP  RH WIND       PRES   REMARKS
SHREVEPORT     MOCLDY    77  71  82 E5        30.02R
BARKSDALE AFB  PTCLDY    74  71  88 SE5       30.02R
DTN SHREVEPORT PTCLDY    77  70  79 SE6       30.02R

$$

LAZ014-016-170400-
NORTHEAST LOUISIANA

CITY           SKY/WX    TMP DP  RH WIND       PRES   REMARKS
MONROE         PTCLDY    75  72  90 CALM      30.02S
TALLULAH       CLOUDY    73  70  90 CALM      30.01S

$$




USA.gov is the U.S. government's official web portal to all federal, state and local government web resources and services.